JBU8101 KBWI-KSAV

Flight info

Callsign JBU8101
Flight time 1h 27m
Altitude 32000
Route CONLE5 SCOOB GUILD Q409 SESUE SOOOP
Aircraft A320/M-SADE3GHIJJ3J4M3P2RWXZ/LB1D1

Departure

Time 2026-05-07 15:38
Airport Baltimore/Washington International Thurgood Marshall Airport (KBWI)

Arrival

Time 2026-05-07 17:05
Airport Savannah Hilton Head International Airport (KSAV)
Time Latitude Longitude Altitude Speed Heading
2026-05-07 15:18 39.18482 -76.65753 147 ft 0 kts 318°
2026-05-07 15:28 39.18482 -76.65752 147 ft 1 kts 318°
2026-05-07 15:28 39.18468 -76.65730 146 ft 4 kts 274°
2026-05-07 15:29 39.18474 -76.65702 145 ft 2 kts 234°
2026-05-07 15:29 39.18475 -76.65700 145 ft 0 kts 234°
2026-05-07 15:33 39.18450 -76.65746 148 ft 9 kts 234°
2026-05-07 15:33 39.18420 -76.65797 152 ft 7 kts 233°
2026-05-07 15:33 39.18388 -76.65863 157 ft 8 kts 256°
2026-05-07 15:33 39.18417 -76.65922 159 ft 9 kts 318°
2026-05-07 15:34 39.18423 -76.65994 160 ft 10 kts 233°
2026-05-07 15:34 39.18374 -76.66081 160 ft 13 kts 228°
2026-05-07 15:34 39.18281 -76.66070 161 ft 16 kts 157°
2026-05-07 15:34 39.18164 -76.66005 159 ft 20 kts 156°
2026-05-07 15:35 39.18052 -76.65992 157 ft 17 kts 213°
2026-05-07 15:35 39.17952 -76.65975 153 ft 17 kts 155°
2026-05-07 15:35 39.17836 -76.65885 147 ft 22 kts 148°
2026-05-07 15:35 39.17705 -76.65780 148 ft 22 kts 148°
2026-05-07 15:36 39.17581 -76.65681 154 ft 19 kts 147°
2026-05-07 15:36 39.17466 -76.65663 156 ft 16 kts 175°
2026-05-07 15:36 39.17414 -76.65552 157 ft 16 kts 111°
2026-05-07 15:36 39.17327 -76.65515 158 ft 13 kts 188°
2026-05-07 15:37 39.17282 -76.65592 155 ft 14 kts 271°
2026-05-07 15:37 39.17299 -76.65839 154 ft 57 kts 274°
2026-05-07 15:37 39.17344 -76.66632 156 ft 117 kts 274°
2026-05-07 15:37 39.17415 -76.67883 180 ft 160 kts 274°
2026-05-07 15:38 39.17459 -76.69335 711 ft 163 kts 274°
2026-05-07 15:38 39.17529 -76.70786 1388 ft 163 kts 279°
2026-05-07 15:38 39.17635 -76.72303 1735 ft 180 kts 279°
2026-05-07 15:38 39.17559 -76.74016 1930 ft 208 kts 251°
2026-05-07 15:39 39.16534 -76.75456 2190 ft 238 kts 206°
2026-05-07 15:39 39.14840 -76.75757 2608 ft 260 kts 167°
2026-05-07 15:39 39.13171 -76.74762 3280 ft 270 kts 143°
2026-05-07 15:39 39.11677 -76.73252 4077 ft 277 kts 139°
2026-05-07 15:40 39.10198 -76.71599 4850 ft 285 kts 140°
2026-05-07 15:40 39.08666 -76.69943 5629 ft 291 kts 143°
2026-05-07 15:40 39.07063 -76.68327 6472 ft 294 kts 147°
2026-05-07 15:40 39.05402 -76.66752 6892 ft 297 kts 149°
2026-05-07 15:41 39.03784 -76.65080 7015 ft 300 kts 139°
2026-05-07 15:41 39.02391 -76.63036 7642 ft 303 kts 135°
2026-05-07 15:41 39.01024 -76.60976 8540 ft 303 kts 137°
2026-05-07 15:41 38.99640 -76.58910 9339 ft 306 kts 137°
2026-05-07 15:42 38.98220 -76.56794 10075 ft 311 kts 138°
2026-05-07 15:42 38.96768 -76.54655 10466 ft 327 kts 141°
2026-05-07 15:42 38.95017 -76.52696 10626 ft 341 kts 153°
2026-05-07 15:42 38.92920 -76.51214 10893 ft 347 kts 166°
2026-05-07 15:43 38.90626 -76.50331 11437 ft 343 kts 178°
2026-05-07 15:43 38.88273 -76.50066 12039 ft 337 kts 190°
2026-05-07 15:43 38.85971 -76.50416 12710 ft 330 kts 200°
2026-05-07 15:43 38.83773 -76.51200 13405 ft 325 kts 208°
2026-05-07 15:44 38.81658 -76.52238 13892 ft 326 kts 209°
2026-05-07 15:44 38.79543 -76.53278 13971 ft 325 kts 210°
2026-05-07 15:44 38.77436 -76.54312 14014 ft 325 kts 209°
2026-05-07 15:44 38.75331 -76.55344 14018 ft 324 kts 209°
2026-05-07 15:45 38.73221 -76.56380 14017 ft 324 kts 210°
2026-05-07 15:45 38.71118 -76.57414 14017 ft 324 kts 210°
2026-05-07 15:45 38.69012 -76.58450 14019 ft 324 kts 209°
2026-05-07 15:45 38.66878 -76.59475 14461 ft 329 kts 208°
2026-05-07 15:46 38.62578 -76.61466 15804 ft 329 kts 208°
2026-05-07 15:46 38.60421 -76.62450 16440 ft 329 kts 208°
2026-05-07 15:46 38.58261 -76.63437 17070 ft 330 kts 208°
2026-05-07 15:47 38.56088 -76.64434 17587 ft 334 kts 207°
2026-05-07 15:47 38.53891 -76.65448 18163 ft 337 kts 207°
2026-05-07 15:47 38.51680 -76.66468 18711 ft 339 kts 207°
2026-05-07 15:47 38.49452 -76.67497 19283 ft 341 kts 207°
2026-05-07 15:48 38.47186 -76.68541 19885 ft 342 kts 208°
2026-05-07 15:48 38.44973 -76.69558 20469 ft 343 kts 208°
2026-05-07 15:48 38.42706 -76.70552 21022 ft 349 kts 204°
2026-05-07 15:48 38.40237 -76.71072 21566 ft 364 kts 194°
2026-05-07 15:49 38.37646 -76.70906 22063 ft 381 kts 185°
2026-05-07 15:49 38.35009 -76.70465 22501 ft 383 kts 185°
2026-05-07 15:49 38.32358 -76.70028 22970 ft 385 kts 185°
2026-05-07 15:49 38.29692 -76.69592 23426 ft 388 kts 185°
2026-05-07 15:50 38.27010 -76.69156 23815 ft 390 kts 186°
2026-05-07 15:50 38.24308 -76.68720 24188 ft 392 kts 186°
2026-05-07 15:50 38.21599 -76.68282 24548 ft 394 kts 186°
2026-05-07 15:50 38.18872 -76.67843 24912 ft 395 kts 186°
2026-05-07 15:51 38.16137 -76.67404 25268 ft 397 kts 186°
2026-05-07 15:51 38.13391 -76.66963 25616 ft 399 kts 186°
2026-05-07 15:51 38.10629 -76.66521 25873 ft 402 kts 186°
2026-05-07 15:51 38.07854 -76.66154 26184 ft 401 kts 188°
2026-05-07 15:52 38.05076 -76.65913 26516 ft 400 kts 190°
2026-05-07 15:52 38.02295 -76.65750 26864 ft 401 kts 191°
2026-05-07 15:52 37.99505 -76.65618 27200 ft 402 kts 191°
2026-05-07 15:52 37.96704 -76.65485 27536 ft 404 kts 191°
2026-05-07 15:53 37.93888 -76.65338 27872 ft 406 kts 191°
2026-05-07 15:53 37.91056 -76.65172 28215 ft 408 kts 191°
2026-05-07 15:53 37.88209 -76.64990 28491 ft 411 kts 190°
2026-05-07 15:53 37.85342 -76.64795 28765 ft 414 kts 190°
2026-05-07 15:54 37.82463 -76.64596 29184 ft 413 kts 190°
2026-05-07 15:54 37.79597 -76.64392 29667 ft 412 kts 191°
2026-05-07 15:54 37.76740 -76.64188 30128 ft 410 kts 191°
2026-05-07 15:54 37.73897 -76.63990 30507 ft 409 kts 191°
2026-05-07 15:55 37.71056 -76.63798 30862 ft 409 kts 191°
2026-05-07 15:55 37.68219 -76.63610 31214 ft 409 kts 192°
2026-05-07 15:55 37.65379 -76.63426 31554 ft 409 kts 192°
2026-05-07 15:55 37.62547 -76.63279 31879 ft 404 kts 195°
2026-05-07 15:56 37.59750 -76.63513 31970 ft 394 kts 202°
2026-05-07 15:56 37.54558 -76.65319 31981 ft 384 kts 213°
2026-05-07 15:57 37.49569 -76.67775 31983 ft 385 kts 213°
2026-05-07 15:57 37.44574 -76.70242 31983 ft 386 kts 213°
2026-05-07 15:58 37.39548 -76.72714 31981 ft 391 kts 212°
2026-05-07 15:58 37.34466 -76.75207 31979 ft 392 kts 212°
2026-05-07 15:59 37.29378 -76.77690 31980 ft 392 kts 212°
2026-05-07 15:59 37.24288 -76.80177 31961 ft 393 kts 212°
2026-05-07 16:00 37.19197 -76.82667 31936 ft 393 kts 212°
2026-05-07 16:00 37.14083 -76.85165 31941 ft 395 kts 212°
2026-05-07 16:01 37.08959 -76.87662 31951 ft 395 kts 212°
2026-05-07 16:01 37.04714 -76.89725 31967 ft 393 kts 212°
2026-05-07 16:02 36.99615 -76.92203 31972 ft 392 kts 212°
2026-05-07 16:02 36.94474 -76.94695 31934 ft 395 kts 211°
2026-05-07 16:03 36.89324 -76.97186 31936 ft 398 kts 211°
2026-05-07 16:03 36.84141 -76.99697 31937 ft 401 kts 211°
2026-05-07 16:04 36.78937 -77.02211 31934 ft 402 kts 211°
2026-05-07 16:04 36.73706 -77.04733 31929 ft 405 kts 212°
2026-05-07 16:05 36.68430 -77.07270 31932 ft 407 kts 212°
2026-05-07 16:05 36.63149 -77.09807 31935 ft 407 kts 212°
2026-05-07 16:06 36.57863 -77.12348 31927 ft 407 kts 212°
2026-05-07 16:06 36.52574 -77.14877 31884 ft 407 kts 213°
2026-05-07 16:07 36.47300 -77.17385 31934 ft 405 kts 213°
2026-05-07 16:07 36.42041 -77.19904 31949 ft 404 kts 213°
2026-05-07 16:08 36.36795 -77.22416 31956 ft 404 kts 213°
2026-05-07 16:08 36.31639 -77.25066 31970 ft 392 kts 220°
2026-05-07 16:08 36.29403 -77.26903 31937 ft 380 kts 227°
2026-05-07 16:09 36.27331 -77.28932 31940 ft 380 kts 227°
2026-05-07 16:09 36.23183 -77.32990 31937 ft 379 kts 227°
2026-05-07 16:10 36.19036 -77.37030 31926 ft 379 kts 227°
2026-05-07 16:10 36.14857 -77.41087 31896 ft 379 kts 227°
2026-05-07 16:11 36.10704 -77.45112 31897 ft 379 kts 227°
2026-05-07 16:11 36.06540 -77.49152 31862 ft 385 kts 226°
2026-05-07 16:12 36.02301 -77.53258 31866 ft 389 kts 226°
2026-05-07 16:12 35.98017 -77.57382 31869 ft 391 kts 226°
2026-05-07 16:13 35.93728 -77.61511 31910 ft 390 kts 226°
2026-05-07 16:13 35.89474 -77.65605 31921 ft 387 kts 226°
2026-05-07 16:14 35.85242 -77.69679 31877 ft 386 kts 226°
2026-05-07 16:14 35.81001 -77.73761 31866 ft 388 kts 226°
2026-05-07 16:15 35.76733 -77.77859 31862 ft 389 kts 225°
2026-05-07 16:15 35.72456 -77.81953 31864 ft 390 kts 225°
2026-05-07 16:16 35.68167 -77.86048 31865 ft 391 kts 225°
2026-05-07 16:16 35.63872 -77.90150 31881 ft 391 kts 225°
2026-05-07 16:17 35.59508 -77.94335 31913 ft 405 kts 224°
2026-05-07 16:17 35.55041 -77.98595 31917 ft 407 kts 225°
2026-05-07 16:18 35.50538 -78.02862 31916 ft 406 kts 225°
2026-05-07 16:18 35.46063 -78.07106 31916 ft 406 kts 225°
2026-05-07 16:19 35.41594 -78.11349 31911 ft 406 kts 225°
2026-05-07 16:19 35.37126 -78.15581 31912 ft 406 kts 225°
2026-05-07 16:20 35.32648 -78.19814 31912 ft 407 kts 225°
2026-05-07 16:20 35.28173 -78.24050 31907 ft 407 kts 225°
2026-05-07 16:21 35.23695 -78.28281 31902 ft 406 kts 225°
2026-05-07 16:21 35.19214 -78.32506 31895 ft 406 kts 225°
2026-05-07 16:22 35.14725 -78.36720 31902 ft 407 kts 224°
2026-05-07 16:22 35.10224 -78.40943 31906 ft 408 kts 224°
2026-05-07 16:23 35.05715 -78.45168 31911 ft 409 kts 224°
2026-05-07 16:23 35.01203 -78.49401 31915 ft 409 kts 224°
2026-05-07 16:24 34.96686 -78.53632 31915 ft 410 kts 224°
2026-05-07 16:24 34.92154 -78.57857 31880 ft 411 kts 224°
2026-05-07 16:25 34.87612 -78.62089 31875 ft 411 kts 224°
2026-05-07 16:25 34.83028 -78.66359 31896 ft 412 kts 224°
2026-05-07 16:26 34.78471 -78.70595 31932 ft 412 kts 224°
2026-05-07 16:26 34.73913 -78.74831 31923 ft 412 kts 224°
2026-05-07 16:27 34.69354 -78.79050 31891 ft 412 kts 224°
2026-05-07 16:27 34.64798 -78.83268 31912 ft 412 kts 224°
2026-05-07 16:28 34.60242 -78.87477 31925 ft 411 kts 224°
2026-05-07 16:28 34.55688 -78.91683 31933 ft 411 kts 224°
2026-05-07 16:29 34.51132 -78.95885 31935 ft 411 kts 224°
2026-05-07 16:29 34.46570 -79.00073 31905 ft 412 kts 224°
2026-05-07 16:30 34.41990 -79.04248 31879 ft 413 kts 223°
2026-05-07 16:30 34.37311 -79.08293 31906 ft 414 kts 222°
2026-05-07 16:31 34.32585 -79.12280 31927 ft 414 kts 222°
2026-05-07 16:31 34.27868 -79.16274 31939 ft 414 kts 222°
2026-05-07 16:32 34.23247 -79.20403 31919 ft 411 kts 225°
2026-05-07 16:32 34.18849 -79.24799 31928 ft 410 kts 227°
2026-05-07 16:33 34.14485 -79.29240 31937 ft 410 kts 226°
2026-05-07 16:33 34.10046 -79.33658 31942 ft 411 kts 226°
2026-05-07 16:34 34.05609 -79.38003 31938 ft 411 kts 226°
2026-05-07 16:34 34.01911 -79.41614 31932 ft 411 kts 225°
2026-05-07 16:35 33.97462 -79.45952 31907 ft 412 kts 225°
2026-05-07 16:35 33.93010 -79.50302 31905 ft 412 kts 225°
2026-05-07 16:36 33.88554 -79.54650 31903 ft 412 kts 225°
2026-05-07 16:36 33.83731 -79.58497 31904 ft 420 kts 217°
2026-05-07 16:37 33.78639 -79.61963 31909 ft 421 kts 217°
2026-05-07 16:37 33.73535 -79.65429 31891 ft 422 kts 216°
2026-05-07 16:38 33.68422 -79.68901 31908 ft 423 kts 216°
2026-05-07 16:38 33.63263 -79.72404 31918 ft 423 kts 216°
2026-05-07 16:39 33.58133 -79.75885 31917 ft 424 kts 216°
2026-05-07 16:39 33.52990 -79.79359 31890 ft 424 kts 216°
2026-05-07 16:40 33.47834 -79.82845 31896 ft 426 kts 216°
2026-05-07 16:40 33.42657 -79.86342 31900 ft 428 kts 216°
2026-05-07 16:41 33.37459 -79.89843 31910 ft 429 kts 216°
2026-05-07 16:41 33.32253 -79.93351 31919 ft 430 kts 216°
2026-05-07 16:42 33.27042 -79.96855 31918 ft 430 kts 216°
2026-05-07 16:42 33.21860 -80.00318 31628 ft 419 kts 216°
2026-05-07 16:42 33.19336 -80.01998 31157 ft 413 kts 216°
2026-05-07 16:43 33.16840 -80.03665 30641 ft 409 kts 216°
2026-05-07 16:43 33.14369 -80.05322 30118 ft 406 kts 216°
2026-05-07 16:43 33.11913 -80.06973 29518 ft 403 kts 216°
2026-05-07 16:43 33.09476 -80.08612 28928 ft 400 kts 217°
2026-05-07 16:44 33.07060 -80.10232 28365 ft 397 kts 217°
2026-05-07 16:44 33.04662 -80.11833 27816 ft 394 kts 217°
2026-05-07 16:44 33.02277 -80.13422 27309 ft 391 kts 217°
2026-05-07 16:44 32.99915 -80.14993 26783 ft 388 kts 217°
2026-05-07 16:45 32.97566 -80.16555 26281 ft 385 kts 217°
2026-05-07 16:45 32.95236 -80.18105 25811 ft 382 kts 218°
2026-05-07 16:45 32.92931 -80.19637 25381 ft 378 kts 218°
2026-05-07 16:45 32.90637 -80.21161 24945 ft 376 kts 218°
2026-05-07 16:46 32.88333 -80.22693 24511 ft 373 kts 218°
2026-05-07 16:46 32.86075 -80.24196 24115 ft 371 kts 218°
2026-05-07 16:46 32.83833 -80.25688 23722 ft 369 kts 218°
2026-05-07 16:46 32.81597 -80.27172 23293 ft 367 kts 218°
2026-05-07 16:47 32.79373 -80.28646 22836 ft 365 kts 218°
2026-05-07 16:47 32.77167 -80.30107 22322 ft 363 kts 218°
2026-05-07 16:47 32.74958 -80.31574 21798 ft 363 kts 218°
2026-05-07 16:47 32.72761 -80.33033 21328 ft 361 kts 218°
2026-05-07 16:48 32.70579 -80.34483 20879 ft 358 kts 218°
2026-05-07 16:48 32.68408 -80.35920 20432 ft 356 kts 218°
2026-05-07 16:48 32.66257 -80.37341 19986 ft 353 kts 218°
2026-05-07 16:48 32.64116 -80.38754 19543 ft 351 kts 217°
2026-05-07 16:49 32.61990 -80.40157 19099 ft 348 kts 217°
2026-05-07 16:49 32.59881 -80.41547 18658 ft 346 kts 217°
2026-05-07 16:49 32.57785 -80.42929 18201 ft 344 kts 217°
2026-05-07 16:49 32.55712 -80.44296 17581 ft 340 kts 217°
2026-05-07 16:50 32.53653 -80.45655 16967 ft 337 kts 217°
2026-05-07 16:50 32.51616 -80.46999 16226 ft 333 kts 217°
2026-05-07 16:50 32.49608 -80.48321 15449 ft 327 kts 216°
2026-05-07 16:50 32.47632 -80.49619 14693 ft 322 kts 216°
2026-05-07 16:51 32.45693 -80.50893 13969 ft 316 kts 215°
2026-05-07 16:51 32.43789 -80.52142 13166 ft 310 kts 215°
2026-05-07 16:51 32.41919 -80.53369 12359 ft 306 kts 216°
2026-05-07 16:51 32.40069 -80.54583 11579 ft 303 kts 216°
2026-05-07 16:52 32.38340 -80.55927 10817 ft 293 kts 226°
2026-05-07 16:52 32.36971 -80.57645 10075 ft 283 kts 238°
2026-05-07 16:52 32.35993 -80.59627 9283 ft 276 kts 247°
2026-05-07 16:52 32.35176 -80.61671 8477 ft 273 kts 246°
2026-05-07 16:53 32.34361 -80.63689 7703 ft 271 kts 246°
2026-05-07 16:53 32.33541 -80.65715 6861 ft 268 kts 246°
2026-05-07 16:53 32.32741 -80.67691 6099 ft 265 kts 246°
2026-05-07 16:53 32.31958 -80.69622 5314 ft 262 kts 245°
2026-05-07 16:54 32.31164 -80.71579 4515 ft 259 kts 244°
2026-05-07 16:54 32.30389 -80.73490 3732 ft 257 kts 244°
2026-05-07 16:54 32.29627 -80.75372 3126 ft 250 kts 245°
2026-05-07 16:54 32.28900 -80.77165 2867 ft 232 kts 245°
2026-05-07 16:55 32.28220 -80.78836 2496 ft 221 kts 244°
2026-05-07 16:55 32.27550 -80.80483 2452 ft 226 kts 244°
2026-05-07 16:55 32.26869 -80.82153 2450 ft 221 kts 244°
2026-05-07 16:55 32.26228 -80.83727 2449 ft 207 kts 244°
2026-05-07 16:56 32.25629 -80.85196 2451 ft 189 kts 244°
2026-05-07 16:56 32.25073 -80.86558 2454 ft 180 kts 244°
2026-05-07 16:56 32.24011 -80.89158 2467 ft 174 kts 244°
2026-05-07 16:57 32.23489 -80.90438 2509 ft 172 kts 244°
2026-05-07 16:57 32.22964 -80.91724 2506 ft 176 kts 245°
2026-05-07 16:57 32.22431 -80.93024 2506 ft 177 kts 245°
2026-05-07 16:57 32.21895 -80.94335 2505 ft 177 kts 245°
2026-05-07 16:58 32.21224 -80.95530 2533 ft 170 kts 229°
2026-05-07 16:58 32.20275 -80.96313 2523 ft 167 kts 212°
2026-05-07 16:58 32.19135 -80.96643 2509 ft 174 kts 193°
2026-05-07 16:58 32.17917 -80.96659 2504 ft 176 kts 191°
2026-05-07 16:59 32.16693 -80.96677 2503 ft 175 kts 191°
2026-05-07 16:59 32.15473 -80.96696 2500 ft 175 kts 191°
2026-05-07 16:59 32.14284 -80.96721 2489 ft 162 kts 197°
2026-05-07 16:59 32.13323 -80.97157 2471 ft 141 kts 226°
2026-05-07 17:00 32.12761 -80.98047 2479 ft 136 kts 250°
2026-05-07 17:00 32.12645 -80.99147 2488 ft 136 kts 268°
2026-05-07 17:00 32.12662 -81.00275 2483 ft 135 kts 266°
2026-05-07 17:00 32.12673 -81.01379 2500 ft 135 kts 266°
2026-05-07 17:01 32.12685 -81.02485 2503 ft 135 kts 266°
2026-05-07 17:01 32.12696 -81.03594 2499 ft 135 kts 266°
2026-05-07 17:01 32.12709 -81.04701 2497 ft 134 kts 268°
2026-05-07 17:01 32.12722 -81.05801 2317 ft 135 kts 266°
2026-05-07 17:02 32.12734 -81.06919 2124 ft 138 kts 266°
2026-05-07 17:02 32.12744 -81.08053 1927 ft 139 kts 267°
2026-05-07 17:02 32.12755 -81.09205 1727 ft 142 kts 267°
2026-05-07 17:02 32.12766 -81.10379 1523 ft 144 kts 267°
2026-05-07 17:03 32.12777 -81.11575 1321 ft 148 kts 267°
2026-05-07 17:03 32.12791 -81.12784 1112 ft 144 kts 266°
2026-05-07 17:03 32.12802 -81.13932 925 ft 136 kts 270°
2026-05-07 17:03 32.12813 -81.15058 748 ft 135 kts 266°
2026-05-07 17:04 32.12822 -81.16179 548 ft 140 kts 268°
2026-05-07 17:04 32.12828 -81.17298 358 ft 135 kts 270°
2026-05-07 17:04 32.12842 -81.18406 169 ft 133 kts 270°
2026-05-07 17:04 32.12857 -81.19472 62 ft 122 kts 265°
2026-05-07 17:05 32.12862 -81.20271 53 ft 68 kts 271°
2026-05-07 17:05 32.12864 -81.20651 51 ft 39 kts 271°
2026-05-07 17:05 32.12868 -81.20929 49 ft 30 kts 271°